Weather History for KLBT - June, 2013

Change the Weather History Date:

Friday, June 7, 2013

  Actual Average Record
Temperature  
Mean Temperature 76 °F 76 °F  
Max Temperature 82 °F 87 °F 99 °F (2008)
Min Temperature 70 °F 65 °F 55 °F (2012)
Degree Days  
Heating Degree Days 0 0  
Month to date heating degree days 0 0  
Since 1 June heating degree days 0 0  
Since 1 July heating degree days 2800 2761  
Cooling Degree Days 11 11  
Month to date cooling degree days 74 73  
Year to date cooling degree days 266 323  
Since 1 June cooling degree days 74 73  
Growing Degree Days 24 (Base 50)    
Moisture  
Dew Point 71 °F    
Average Humidity 87    
Maximum Humidity 100    
Minimum Humidity 74    
Precipitation  
Precipitation 1.19 in 0.15 in 1.42 in (2003)
Month to date precipitation 3.66 1.17  
Year to date precipitation 18.15 16.24  
Sea Level Pressure  
Sea Level Pressure 29.64 in    
Wind  
Wind Speed 7 mph (ESE)    
Max Wind Speed 25 mph    
Max Gust Speed 37 mph    
Visibility 5 miles    
Events Rain    
T = Trace of Precipitation, MM = Missing Value Source: NWS Daily Summary

Daily Weather History Graph

Daily Weather History Graph

Search for Another Location

Airport or City:

Trip Planner

Search our weather history database for the weather conditions in past years. The results will help you decide how hot, cold, wet, or windy it might be!

Date:

Astronomy

Jun. 07, 2013 Rise Set
Actual Time 6:03 AM EDT 8:27 PM EDT
Civil Twilight 5:33 AM EDT 8:56 PM EDT
Nautical Twilight 4:57 AM EDT 9:32 PM EDT
Astronomical Twilight 4:18 AM EDT 10:12 PM EDT
Moon 5:21 AM EDT (6/7) 7:42 PM EDT (6/7)
Length of Visible Light 15h 22m
Length of Day
14h 24m
Waning Crescent, 1% of the Moon is Illuminated
Jun 7
Waning Crescent
Jun 8
New
Jun 16
First Quarter
Jun 23
Full
Jun 30
Last Quarter

Hourly Weather History & Observations

Time (EDT) Temp. Dew Point Humidity Pressure Visibility Wind Dir Wind Speed Gust Speed Precip Events Conditions
12:46 AM 71.6 °F 69.8 °F 94% 29.80 in 2.0 mi East 12.7 mph 17.3 mph 0.19 in Rain Heavy Rain
12:54 AM 72.0 °F 70.0 °F 93% 29.79 in 2.5 mi East 9.2 mph - 0.23 in Rain Rain
1:23 AM 71.6 °F 69.8 °F 94% 29.75 in 3.0 mi ENE 10.4 mph - 0.13 in Rain Rain
1:35 AM 71.6 °F 69.8 °F 94% 29.76 in 5.0 mi ENE 6.9 mph - 0.14 in Rain Light Rain
1:44 AM 71.6 °F 69.8 °F 94% 29.75 in 3.0 mi ENE 9.2 mph - 0.17 in Rain Rain
1:48 AM 71.6 °F 69.8 °F 94% 29.75 in 2.5 mi ENE 10.4 mph - 0.19 in Rain Rain
1:54 AM 71.1 °F 69.1 °F 93% 29.73 in 1.5 mi ENE 8.1 mph - 0.27 in Rain Heavy Rain
2:01 AM 71.6 °F 69.8 °F 94% 29.73 in 1.8 mi ENE 10.4 mph - 0.05 in Rain Heavy Rain
2:03 AM 71.6 °F 69.8 °F 94% 29.73 in 2.0 mi ENE 8.1 mph - 0.05 in Rain Rain
2:17 AM 71.6 °F 69.8 °F 94% 29.73 in 2.0 mi East 8.1 mph - 0.13 in Rain Heavy Rain
2:23 AM 71.6 °F 69.8 °F 94% 29.73 in 1.5 mi East 9.2 mph - 0.20 in Rain Heavy Rain
2:28 AM 71.6 °F 69.8 °F 94% 29.72 in 1.8 mi ENE 10.4 mph - 0.22 in Rain Heavy Rain
2:30 AM 69.8 °F 69.8 °F 100% 29.72 in 2.0 mi ENE 12.7 mph - 0.23 in Rain Heavy Rain
2:35 AM 69.8 °F 69.8 °F 100% 29.71 in 3.0 mi ENE 10.4 mph 17.3 mph 0.24 in Rain Rain
2:54 AM 70.0 °F 69.1 °F 97% 29.69 in 6.0 mi East 6.9 mph - 0.27 in Rain Light Rain
3:03 AM 69.8 °F 69.8 °F 100% 29.69 in 8.0 mi ESE 8.1 mph - 0.01 in Rain Light Rain
3:17 AM 69.8 °F 69.8 °F 100% 29.69 in 1.8 mi ENE 5.8 mph - 0.04 in Rain Rain
3:32 AM 69.8 °F 69.8 °F 100% 29.68 in 1.8 mi ENE 5.8 mph - 0.15 in Rain Rain
3:39 AM 69.8 °F 69.8 °F 100% 29.68 in 1.5 mi ENE 4.6 mph - 0.17 in Rain Rain
3:41 AM 69.8 °F 69.8 °F 100% 29.68 in 2.5 mi ENE 3.5 mph - 0.17 in Rain Light Rain
3:49 AM 69.8 °F 69.8 °F 100% 29.68 in 3.0 mi NE 3.5 mph - 0.18 in Rain Rain
3:54 AM 70.0 °F 69.1 °F 97% 29.67 in 4.0 mi NE 3.5 mph - 0.18 in Rain Light Rain
4:02 AM 71.6 °F 69.8 °F 94% 29.67 in 10.0 mi Calm Calm - 0.01 in   Overcast
4:34 AM 71.6 °F 69.8 °F 94% 29.65 in 2.0 mi NE 4.6 mph - 0.06 in Rain Rain
4:43 AM 71.6 °F 69.8 °F 94% 29.66 in 4.0 mi Calm Calm - 0.08 in Rain Light Rain
4:54 AM 71.1 °F 70.0 °F 96% 29.65 in 4.0 mi Calm Calm - 0.10 in Rain Light Rain
5:18 AM 71.6 °F 69.8 °F 94% 29.65 in 10.0 mi Calm Calm - 0.02 in   Mostly Cloudy
5:25 AM 71.6 °F 71.6 °F 100% 29.65 in 10.0 mi Calm Calm - 0.02 in   Mostly Cloudy
5:44 AM 71.6 °F 71.6 °F 100% 29.64 in 10.0 mi Calm Calm - 0.02 in   Overcast
5:54 AM 72.0 °F 71.1 °F 97% 29.64 in 10.0 mi Calm Calm - 0.02 in   Overcast
6:54 AM 73.0 °F 72.0 °F 96% 29.62 in 6.0 mi ENE 4.6 mph - N/A   Overcast
7:02 AM 73.4 °F 71.6 °F 94% 29.61 in 2.5 mi East 3.5 mph - 0.02 in Rain Light Rain
7:10 AM 73.4 °F 71.6 °F 94% 29.61 in 5.0 mi East 4.6 mph - 0.02 in Rain Light Rain
7:28 AM 73.4 °F 73.4 °F 100% 29.61 in 1.8 mi ESE 3.5 mph - 0.06 in Rain Heavy Rain
7:32 AM 73.4 °F 73.4 °F 100% 29.60 in 1.0 mi ESE 4.6 mph - 0.09 in Rain Heavy Rain
7:52 AM 73.4 °F 73.4 °F 100% 29.59 in 1.0 mi SSE 8.1 mph - 0.23 in Rain Heavy Rain
7:53 AM 73.9 °F 73.0 °F 97% 29.59 in 1.0 mi SE 6.9 mph - 0.23 in Rain Light Rain
7:57 AM 73.4 °F 73.4 °F 100% 29.59 in 2.0 mi SSE 9.2 mph - 0.00 in Rain Light Rain
7:59 AM 75.2 °F 73.4 °F 94% 29.60 in 6.0 mi SSE 9.2 mph - 0.00 in Rain Light Rain
8:17 AM 75.2 °F 73.4 °F 94% 29.59 in 9.0 mi SSE 5.8 mph - 0.00 in   Overcast
8:54 AM 75.9 °F 73.0 °F 91% 29.57 in 10.0 mi SSE 5.8 mph - 0.00 in   Overcast
9:42 AM 75.2 °F 73.4 °F 94% 29.55 in 1.8 mi SSE 9.2 mph 18.4 mph 0.01 in Rain Rain
9:52 AM 75.2 °F 73.4 °F 94% 29.55 in 3.0 mi Variable 6.9 mph - 0.02 in Rain Light Rain
9:54 AM 75.0 °F 73.0 °F 94% 29.55 in 4.0 mi South 3.5 mph - 0.02 in Rain Light Rain
10:01 AM 75.2 °F 73.4 °F 94% 29.55 in 4.0 mi Variable 6.9 mph - 0.00 in Rain Light Rain
10:28 AM 78.8 °F 73.4 °F 83% 29.53 in 10.0 mi SSE 12.7 mph 18.4 mph 0.00 in   Overcast
10:54 AM 77.0 °F 72.0 °F 84% 29.52 in 10.0 mi SSE 9.2 mph 19.6 mph 0.00 in   Overcast
11:54 AM 75.9 °F 72.0 °F 87% 29.49 in 4.0 mi SSE 10.4 mph 21.9 mph 0.00 in Rain Light Rain
11:59 AM 75.2 °F 73.4 °F 94% 29.49 in 1.5 mi SSE 12.7 mph 20.7 mph 0.01 in Rain Light Rain
12:09 PM 75.2 °F 73.4 °F 94% 29.48 in 3.0 mi SSE 11.5 mph 21.9 mph 0.01 in   Overcast
12:24 PM 75.2 °F 71.6 °F 89% 29.47 in 1.8 mi SSE 15.0 mph 24.2 mph 0.01 in Rain Light Rain
12:32 PM 75.2 °F 73.4 °F 94% 29.46 in 2.5 mi SSE 16.1 mph 24.2 mph 0.02 in Rain Light Rain
12:40 PM 75.2 °F 73.4 °F 94% 29.46 in 5.0 mi SSE 12.7 mph 24.2 mph 0.02 in Rain Light Rain
12:54 PM 75.0 °F 73.0 °F 94% 29.45 in 3.0 mi South 11.5 mph 18.4 mph 0.02 in   Overcast
1:29 PM 78.8 °F 73.4 °F 83% 29.47 in 9.0 mi WSW 24.2 mph 36.8 mph N/A   Overcast
1:42 PM 75.2 °F 71.6 °F 89% 29.50 in 10.0 mi West 25.3 mph 35.7 mph N/A   Overcast
1:54 PM 73.9 °F 71.1 °F 91% 29.53 in 10.0 mi West 21.9 mph 33.4 mph N/A   Overcast
2:28 PM 73.4 °F 69.8 °F 88% 29.59 in 1.8 mi West 19.6 mph 31.1 mph 0.01 in Rain Light Rain
2:36 PM 73.4 °F 69.8 °F 88% 29.60 in 3.0 mi West 16.1 mph 25.3 mph 0.01 in Rain Light Rain
2:49 PM 73.4 °F 69.8 °F 88% 29.61 in 10.0 mi West 13.8 mph 31.1 mph 0.01 in   Overcast
2:54 PM 73.9 °F 70.0 °F 87% 29.62 in 10.0 mi West 15.0 mph 23.0 mph 0.01 in   Overcast
3:54 PM 75.9 °F 70.0 °F 82% 29.66 in 10.0 mi West 16.1 mph 21.9 mph 0.00 in   Overcast
4:54 PM 78.1 °F 70.0 °F 76% 29.69 in 10.0 mi West 11.5 mph 17.3 mph N/A   Overcast
5:15 PM 78.8 °F 69.8 °F 74% 29.71 in 10.0 mi West 10.4 mph 23.0 mph N/A   Mostly Cloudy
5:54 PM 79.0 °F 69.1 °F 72% 29.71 in 10.0 mi WSW 10.4 mph 18.4 mph N/A   Mostly Cloudy
6:54 PM 79.0 °F 70.0 °F 74% 29.74 in 10.0 mi SW 10.4 mph - N/A   Partly Cloudy
7:54 PM 75.9 °F 70.0 °F 82% 29.76 in 10.0 mi Calm Calm - N/A   Partly Cloudy
8:54 PM 73.0 °F 70.0 °F 90% 29.78 in 10.0 mi South 3.5 mph - N/A   Clear
9:54 PM 73.0 °F 70.0 °F 90% 29.81 in 10.0 mi SSE 3.5 mph - N/A   Clear
10:54 PM 73.0 °F 70.0 °F 90% 29.82 in 10.0 mi Calm Calm - N/A   Partly Cloudy
11:54 PM 73.0 °F 71.1 °F 93% 29.86 in 10.0 mi WNW 15.0 mph 20.7 mph N/A   Scattered Clouds